Portada
METAR-TAF:

METAR-TAF

Aeropuertos :

Lleida-Alguaire

Lérida, España

latitud: 41-43-40N, longitud: 000-32-09E, altitud: 350 m

Observación

El informe se hizo hace 25 minutos, a las 09:30 UTC
Viento 13 kt del oeste, variando entre oeste-suroeste y noroeste
Temperatura 17°C
Humedad 52%
Presión 1014 hPa
Visibilidad 10 km o más
Escasas nubes a una altura de 3000 ft

METAR: LEDA 130930Z 26013KT 240V310 9999 FEW030 17/07 Q1014

Hora: 11:55 (09:55 UTC)


TAF: falta

Observaciones y pronósticos meteorológicos de más de 4000 aeropuertos (mensajes METAR y TAF).

Los puntos amarillos y rojos representan las estaciones disponibles.

Ponga el ratón en el punto deseado para ver el nombre de la estación.

Haga clic para ver las observaciones y los pronósticos meteorológicos.

Para cambiar el mapa : haga clic en los botones verdes con una cruz de color negro para hacer un zoom, en el botón verde con un guión para alejar o en las flechas verdes para mapas adyacentes.


METAR-TAF: